WB5CFT Weather Reports


time (UTC)temp
F
wind
direction
speed
knots
gust
knots
rain 1hr
in
rain 24hr
in
rain mn
in
humidity
%
barometer
mb
20260506025554 73 289 0.0 0.0 0.00 0.00 0.00 37 1010.1
20260506025050 73 290 0.0 0.0 0.00 0.00 0.00 37 1010.0
20260506024547 74 291 0.0 0.0 0.00 0.00 0.00 37 1010.2
20260506024044 74 287 0.0 0.9 0.00 0.00 0.00 36 1010.1
20260506023539 74 292 0.0 0.0 0.00 0.00 0.00 36 1010.2
20260506023037 75 286 0.0 0.0 0.00 0.00 0.00 35 1010.3
20260506022535 75 266 0.0 0.0 0.00 0.00 0.00 35 1010.2
20260506022032 75 275 0.0 0.0 0.00 0.00 0.00 35 1010.0
20260506021529 75 273 0.0 0.0 0.00 0.00 0.00 35 1010.2
20260506021026 75 263 0.0 0.0 0.00 0.00 0.00 35 1009.9
20260506020524 76 245 0.0 0.0 0.00 0.00 0.00 35 1010.0
20260506020021 76 260 0.9 1.7 0.00 0.00 0.00 34 1009.9
20260506015519 76 263 0.9 1.7 0.00 0.00 0.00 34 1009.9
20260506015015 77 247 0.9 1.7 0.00 0.00 0.00 34 1010.1
20260506014513 77 274 3.5 3.5 0.00 0.00 0.00 34 1010.0
20260506014009 77 276 1.7 1.7 0.00 0.00 0.00 33 1010.1
20260506013507 77 253 5.2 8.7 0.00 0.00 0.00 33 1010.0
20260506013003 77 251 2.6 5.2 0.00 0.00 0.00 33 1009.9
20260506012459 77 258 1.7 3.5 0.00 0.00 0.00 33 1009.8
20260506011956 78 236 3.5 7.0 0.00 0.00 0.00 33 1009.8
20260506011454 78 266 6.1 8.7 0.00 0.00 0.00 32 1009.8
20260506010950 78 284 6.1 7.8 0.00 0.00 0.00 32 1009.5
20260506010449 79 272 5.2 7.0 0.00 0.00 0.00 32 1009.6
20260506005945 79 274 4.3 6.1 0.00 0.00 0.00 32 1009.9
20260506005443 79 217 0.9 1.7 0.00 0.00 0.00 32 1009.9
20260506004938 79 214 3.5 5.2 0.00 0.00 0.00 31 1009.9
20260506004436 79 230 5.2 8.7 0.00 0.00 0.00 32 1009.9
20260506003932 79 246 1.7 3.5 0.00 0.00 0.00 32 1009.8
20260506003429 78 201 3.5 3.5 0.00 0.00 0.00 32 1009.8
20260506002925 78 269 1.7 2.6 0.00 0.00 0.00 32 1009.8
20260506002421 79 250 1.7 2.6 0.00 0.00 0.00 32 1009.9
20260506001917 80 281 3.5 6.1 0.00 0.00 0.00 31 1009.9
20260506001414 79 282 5.2 7.8 0.00 0.00 0.00 32 1010.0
20260506000911 78 263 2.6 2.6 0.00 0.00 0.00 32 1010.1
20260506000409 78 254 3.5 6.1 0.00 0.00 0.00 32 1009.9
20260505235905 78 270 2.6 5.2 0.00 0.00 0.00 32 1010.2
20260505235403 78 281 2.6 3.5 0.00 0.00 0.00 32 1010.1
20260505234900 78 239 5.2 7.8 0.00 0.00 0.00 31 1009.9
20260505234358 79 264 3.5 7.8 0.00 0.00 0.00 31 1010.2
20260505233854 79 281 5.2 8.7 0.00 0.00 0.00 31 1010.1
20260505233352 79 236 6.1 11.3 0.00 0.00 0.00 31 1010.0
20260505232849 79 293 7.8 11.3 0.00 0.00 0.00 31 1010.2
20260505232347 80 205 7.8 12.2 0.00 0.00 0.00 30 1010.0
20260505231843 80 275 6.1 9.6 0.00 0.00 0.00 30 1010.1
20260505231341 79 240 11.3 15.6 0.00 0.00 0.00 30 1010.2
20260505230839 80 293 5.2 11.3 0.00 0.00 0.00 31 1010.1
20260505230336 80 227 0.0 0.0 0.00 0.00 0.00 31 1010.0
20260505225833 80 252 2.6 5.2 0.00 0.00 0.00 30 1010.0
20260505225330 80 225 5.2 8.7 0.00 0.00 0.00 30 1009.8
20260505224825 80 243 2.6 5.2 0.00 0.00 0.00 30 1009.8
20260505224323 81 246 2.6 5.2 0.00 0.00 0.00 30 1009.9
20260505223820 81 259 7.0 9.6 0.00 0.00 0.00 28 1010.1
20260505223317 81 247 9.6 9.6 0.00 0.00 0.00 29 1010.1
20260505222812 81 274 1.7 2.6 0.00 0.00 0.00 30 1009.9
20260505222309 81 282 5.2 6.1 0.00 0.00 0.00 30 1010.1
20260505221806 82 307 6.1 7.8 0.00 0.00 0.00 29 1009.9
20260505221303 80 267 0.0 1.7 0.00 0.00 0.00 30 1009.8
20260505220800 80 267 3.5 3.5 0.00 0.00 0.00 31 1010.2
20260505220257 80 232 1.7 5.2 0.00 0.00 0.00 31 1010.1
20260505215755 80 282 3.5 7.0 0.00 0.00 0.00 31 1010.2
20260505215253 81 261 7.0 11.3 0.00 0.00 0.00 30 1010.3
20260505214750 81 255 2.6 3.5 0.00 0.00 0.00 30 1010.2
20260505214247 81 241 2.6 6.1 0.00 0.00 0.00 30 1010.4
20260505213744 81 263 1.7 2.6 0.00 0.00 0.00 30 1010.1
20260505213242 81 206 5.2 7.8 0.00 0.00 0.00 30 1010.1
20260505212737 81 229 4.3 7.8 0.00 0.00 0.00 30 1010.2
20260505212235 80 262 8.7 13.9 0.00 0.00 0.00 30 1010.2
20260505211732 80 306 7.8 9.6 0.00 0.00 0.00 30 1010.3
20260505211229 79 267 4.3 6.1 0.00 0.00 0.00 31 1010.2
20260505210726 79 251 5.2 9.6 0.00 0.00 0.00 31 1010.4
20260505210222 79 271 4.3 7.0 0.00 0.00 0.00 31 1010.5
20260505205720 78 272 5.2 7.0 0.00 0.00 0.00 31 1010.9
20260505205218 78 236 8.7 12.2 0.00 0.00 0.00 30 1010.7
20260505204714 78 249 0.0 1.7 0.00 0.00 0.00 31 1010.9
20260505204212 78 262 5.2 7.8 0.00 0.00 0.00 31 1011.2
20260505203709 78 257 0.9 1.7 0.00 0.00 0.00 32 1011.0
20260505203206 77 244 7.0 9.6 0.00 0.00 0.00 31 1011.0
20260505202701 77 274 7.8 9.6 0.00 0.00 0.00 31 1011.3
20260505202158 77 262 3.5 6.1 0.00 0.00 0.00 32 1011.3
20260505201654 76 191 0.0 0.0 0.00 0.00 0.00 33 1011.3
20260505201153 76 189 0.0 0.0 0.00 0.00 0.00 33 1011.3
20260505200651 76 189 0.0 0.9 0.00 0.00 0.00 32 1011.2
20260505200147 76 209 0.0 0.0 0.00 0.00 0.00 31 1011.2
20260505195643 76 210 0.0 0.0 0.00 0.00 0.00 33 1011.3
20260505195140 75 210 0.0 0.0 0.00 0.00 0.00 32 1011.2
20260505194637 75 210 0.0 0.0 0.00 0.00 0.00 33 1011.3
20260505194133 75 215 0.9 0.9 0.00 0.00 0.00 31 1011.3
20260505193630 75 253 0.0 0.9 0.00 0.00 0.00 31 1011.3
20260505193127 75 225 0.0 0.9 0.00 0.00 0.00 31 1011.3
20260505192626 75 247 0.9 2.6 0.00 0.00 0.00 31 1011.2
20260505192123 75 272 0.9 2.6 0.00 0.00 0.00 31 1011.4
20260505191621 75 274 3.5 5.2 0.00 0.00 0.00 30 1011.6
20260505191119 75 259 0.9 1.7 0.00 0.00 0.00 32 1011.4
20260505190614 75 243 0.0 0.0 0.00 0.00 0.00 33 1011.6
20260505190109 75 233 0.0 0.9 0.00 0.00 0.00 32 1011.6
20260505185607 75 229 0.9 1.7 0.00 0.00 0.00 32 1011.5
20260505185103 75 229 0.0 0.0 0.00 0.00 0.00 32 1011.6
20260505184559 75 251 0.0 0.0 0.00 0.00 0.00 33 1011.6
20260505184056 75 267 0.0 1.7 0.00 0.00 0.00 33 1011.6
20260505183553 75 278 0.9 1.7 0.00 0.00 0.00 33 1011.9
20260505183051 76 255 3.5 5.2 0.00 0.00 0.00 32 1011.7
20260505182541 76 251 1.7 5.2 0.00 0.00 0.00 33 1011.7
20260505182038 76 237 0.9 2.6 0.00 0.00 0.00 34 1012.1
20260505181535 76 237 0.9 2.6 0.00 0.00 0.00 34 1012.1
20260505181032 76 223 7.0 7.8 0.00 0.00 0.00 33 1012.1
20260505180527 76 242 0.9 0.9 0.00 0.00 0.00 34 1012.1
20260505180026 76 223 4.3 6.1 0.00 0.00 0.00 33 1012.1
20260505175526 76 248 0.0 0.9 0.00 0.00 0.00 34 1012.1
20260505175023 76 271 4.3 6.1 0.00 0.00 0.00 33 1012.2
20260505174520 76 261 3.5 5.2 0.00 0.00 0.00 34 1012.2
20260505174016 76 235 1.7 2.6 0.00 0.00 0.00 35 1012.1
20260505173513 76 240 1.7 2.6 0.00 0.00 0.00 35 1012.1
20260505173010 75 241 1.7 3.5 0.00 0.00 0.00 35 1012.1
20260505172508 76 242 0.0 0.9 0.00 0.00 0.00 34 1011.9
20260505172009 76 214 0.9 2.6 0.00 0.00 0.00 35 1011.8
20260505171505 76 254 3.5 6.1 0.00 0.00 0.00 34 1011.8
20260505171001 76 232 1.7 6.1 0.00 0.00 0.00 35 1012.1
20260505170458 75 255 3.5 7.0 0.00 0.00 0.00 34 1011.7
20260505165953 75 235 3.5 6.1 0.00 0.00 0.00 35 1011.8
20260505165450 75 214 4.3 7.8 0.00 0.00 0.00 34 1011.8
20260505164945 75 250 7.0 8.7 0.00 0.00 0.00 34 1011.7
20260505164442 75 257 0.0 1.7 0.00 0.00 0.00 35 1011.8
20260505163940 75 269 7.8 8.7 0.00 0.00 0.00 34 1011.7
20260505163438 75 250 0.9 1.7 0.00 0.00 0.00 35 1011.7
20260505162937 75 247 2.6 3.5 0.00 0.00 0.00 34 1011.6
20260505162433 74 218 0.0 0.0 0.00 0.00 0.00 35 1011.6
20260505161930 74 202 0.9 2.6 0.00 0.00 0.00 33 1011.7
20260505161426 74 177 0.9 1.7 0.00 0.00 0.00 32 1011.6
20260505160924 74 181 0.9 1.7 0.00 0.00 0.00 33 1011.7
20260505160422 74 163 1.7 2.6 0.00 0.00 0.00 32 1011.4
20260505152858 73 195 1.7 2.6 0.00 0.00 0.00 34 1011.5
20260505152356 72 172 0.0 0.0 0.00 0.00 0.00 34 1011.4
20260505151855 72 176 0.0 0.0 0.00 0.00 0.00 35 1011.6
20260505151352 72 163 2.6 2.6 0.00 0.00 0.00 34 1011.7
20260505150849 72 176 2.6 3.5 0.00 0.00 0.00 34 1011.8
20260505150347 72 175 0.0 0.0 0.00 0.00 0.00 34 1011.7
20260505140317 73 200 0.9 2.6 0.00 0.00 0.00 31 1011.7
20260505130240 72 141 0.0 0.0 0.00 0.00 0.00 31 1010.6
20260505124731 74 104 0.0 0.0 0.00 0.00 0.00 29 1010.2
20260505124228 71 189 1.7 3.5 0.00 0.00 0.00 30 1010.1
20260505123723 72 81 0.0 0.0 0.00 0.00 0.00 32 1010.1
20260505123220 73 81 0.0 0.0 0.00 0.00 0.00 30 1009.6
20260505122716 72 31 0.0 0.0 0.00 0.00 0.00 31 1010.1
20260505122214 72 41 0.0 0.0 0.00 0.00 0.00 29 1009.9
20260505121710 71 171 0.0 0.0 0.00 0.00 0.00 33 1009.8
20260505121207 73 124 0.0 0.0 0.00 0.00 0.00 30 1009.9
20260505120703 69 161 0.0 0.0 0.00 0.00 0.00 33 1009.9
20260505120159 70 153 0.0 0.0 0.00 0.00 0.00 33 1009.6
20260505115653 69 156 1.7 1.7 0.00 0.00 0.00 31 1009.5
20260505115151 69 169 0.0 0.0 0.00 0.00 0.00 34 1009.4
20260505114648 69 171 0.0 0.0 0.00 0.00 0.00 34 1009.1
20260505114144 69 171 0.0 0.0 0.00 0.00 0.00 35 1009.2
20260505113641 69 173 0.0 0.0 0.00 0.00 0.00 35 1009.2
20260505113137 70 176 0.0 0.0 0.00 0.00 0.00 33 1009.2
20260505112633 70 209 0.0 0.0 0.00 0.00 0.00 33 1009.3
20260505112132 70 217 0.0 0.0 0.00 0.00 0.00 32 1009.1
20260505111631 70 223 0.0 0.0 0.00 0.00 0.00 32 1009.1
20260505111127 70 223 0.0 0.0 0.00 0.00 0.00 31 1009.2
20260505110624 70 223 0.0 0.0 0.00 0.00 0.00 32 1009.3
20260505110121 70 224 0.0 0.0 0.00 0.00 0.00 32 1009.1
20260505102057 70 212 0.0 0.0 0.00 0.00 0.00 31 1009.2
20260505101555 70 212 0.0 0.0 0.00 0.00 0.00 31 1009.2
20260505101051 70 216 0.0 0.0 0.00 0.00 0.00 33 1009.2
20260505100548 71 224 0.0 0.0 0.00 0.00 0.00 31 1009.1
20260505100045 72 230 0.0 0.0 0.00 0.00 0.00 31 1009.0
20260505095541 72 231 0.0 0.0 0.00 0.00 0.00 29 1009.0
20260505095037 72 230 0.0 0.0 0.00 0.00 0.00 28 1009.1
20260505094534 73 245 0.0 0.0 0.00 0.00 0.00 28 1009.1
20260505094030 73 230 0.0 0.0 0.00 0.00 0.00 28 1009.0
20260505093527 73 243 0.0 0.0 0.00 0.00 0.00 27 1009.0
20260505093024 73 227 0.0 0.9 0.00 0.00 0.00 27 1008.9
20260505092521 74 232 0.0 0.0 0.00 0.00 0.00 26 1008.8
20260505092020 74 229 0.0 0.0 0.00 0.00 0.00 26 1008.7
20260505091516 74 260 1.7 3.5 0.00 0.00 0.00 25 1008.9
20260505091015 74 278 0.9 3.5 0.00 0.00 0.00 26 1008.9
20260505090512 74 282 0.9 1.7 0.00 0.00 0.00 27 1008.9
20260505090010 74 324 5.2 6.1 0.00 0.00 0.00 26 1009.1
20260505085508 74 282 4.3 7.0 0.00 0.00 0.00 26 1008.9
20260505085006 74 250 1.7 2.6 0.00 0.00 0.00 26 1009.1
20260505084503 74 316 3.5 3.5 0.00 0.00 0.00 27 1008.9
20260505084001 73 270 0.0 0.9 0.00 0.00 0.00 27 1008.8
20260505083458 73 276 0.9 1.7 0.00 0.00 0.00 28 1008.8
20260505082954 73 256 3.5 5.2 0.00 0.00 0.00 28 1008.9
20260505082450 73 240 4.3 6.1 0.00 0.00 0.00 28 1008.9
20260505081947 73 291 0.9 3.5 0.00 0.00 0.00 28 1008.9
20260505081444 73 275 3.5 8.7 0.00 0.00 0.00 29 1009.3
20260505080940 73 261 2.6 5.2 0.00 0.00 0.00 29 1009.2
20260505080437 73 260 1.7 2.6 0.00 0.00 0.00 29 1009.2
20260505075932 73 263 0.0 0.9 0.00 0.00 0.00 29 1009.4
20260505075429 73 293 0.9 1.7 0.00 0.00 0.00 29 1009.6
20260505074927 73 249 0.0 0.0 0.00 0.00 0.00 29 1009.4
20260505074424 74 260 0.0 0.0 0.00 0.00 0.00 29 1009.4
20260505073921 74 264 0.0 0.9 0.00 0.00 0.00 28 1009.8
20260505073419 73 242 0.0 0.0 0.00 0.00 0.00 29 1009.9
20260505072916 73 238 0.0 0.0 0.00 0.00 0.00 29 1009.8
20260505072411 72 251 0.9 1.7 0.00 0.00 0.00 31 1009.6
20260505071908 71 234 0.0 0.0 0.00 0.00 0.00 33 1009.6
20260505071404 71 232 0.0 0.0 0.00 0.00 0.00 34 1009.6
20260505070903 71 231 0.0 0.0 0.00 0.00 0.00 33 1009.8
20260505070358 71 232 0.0 0.0 0.00 0.00 0.00 34 1009.6
20260505065854 71 232 0.0 0.0 0.00 0.00 0.00 35 1009.6
20260505065351 71 232 0.0 0.0 0.00 0.00 0.00 33 1009.6
20260505064848 72 233 0.0 0.0 0.00 0.00 0.00 33 1009.5
20260505064345 72 233 0.0 0.0 0.00 0.00 0.00 33 1009.4
20260505063843 72 237 0.0 0.0 0.00 0.00 0.00 34 1009.6
20260505063339 72 231 0.9 0.9 0.00 0.00 0.00 33 1009.6
20260505062836 72 232 0.0 0.0 0.00 0.00 0.00 33 1009.6
20260505062333 72 232 0.0 0.0 0.00 0.00 0.00 32 1009.5
20260505061830 73 232 0.0 0.0 0.00 0.00 0.00 32 1009.6
20260505061328 73 232 0.0 0.0 0.00 0.00 0.00 31 1009.8
20260505060825 73 233 0.0 0.0 0.00 0.00 0.00 31 1009.8
20260505060322 73 232 0.0 0.0 0.00 0.00 0.00 31 1009.9
20260505055818 73 233 0.0 0.0 0.00 0.00 0.00 32 1009.6
20260505055314 74 234 0.0 0.0 0.00 0.00 0.00 31 1009.8
20260505054812 74 234 0.0 0.0 0.00 0.00 0.00 30 1009.9
20260505054309 75 234 0.0 0.0 0.00 0.00 0.00 30 1009.6
20260505053807 75 254 0.0 0.0 0.00 0.00 0.00 30 1009.9
20260505053303 75 242 0.0 0.9 0.00 0.00 0.00 29 1010.0
20260505052800 76 243 0.0 0.0 0.00 0.00 0.00 29 1010.0
20260505052257 76 254 0.0 1.7 0.00 0.00 0.00 28 1010.0
20260505051754 76 243 0.0 0.0 0.00 0.00 0.00 28 1010.0
20260505051252 76 235 0.9 1.7 0.00 0.00 0.00 27 1009.9
20260505050750 77 232 0.0 0.0 0.00 0.00 0.00 27 1010.0
20260505050248 77 232 0.0 0.0 0.00 0.00 0.00 27 1010.0
20260505041718 78 264 1.7 2.6 0.00 0.00 0.00 26 1010.0
20260505041215 78 271 0.9 2.6 0.00 0.00 0.00 26 1010.0
20260505040712 78 247 0.0 0.9 0.00 0.00 0.00 26 1010.1
20260505040209 78 282 3.5 5.2 0.00 0.00 0.00 26 1010.0
20260505035706 78 268 0.0 0.0 0.00 0.00 0.00 26 1009.6
20260505035202 78 256 0.9 1.7 0.00 0.00 0.00 26 1009.9
20260505034659 78 263 0.9 1.7 0.00 0.00 0.00 26 1009.6
20260505034156 78 249 0.0 0.0 0.00 0.00 0.00 26 1009.3
20260505033652 79 243 0.9 3.5 0.00 0.00 0.00 25 1009.6
20260505033151 80 246 0.0 0.9 0.00 0.00 0.00 24 1009.2
20260505032648 80 229 1.7 1.7 0.00 0.00 0.00 24 1009.2
20260505032144 81 261 2.6 3.5 0.00 0.00 0.00 23 1009.3
20260505031642 81 256 5.2 7.0 0.00 0.00 0.00 22 1009.2
20260505031138 81 239 1.7 3.5 0.00 0.00 0.00 23 1009.2
20260505030635 81 255 2.6 5.2 0.00 0.00 0.00 23 1009.1
20260505030131 80 256 3.5 5.2 0.00 0.00 0.00 23 1009.2